Presure
136 124 113 125 134 150 189 189 184 172 137 179 114 136 120 103 93 175 173 173 140 128 125 119 130 184 140 161 247 223 280 253 265 246 208 183 218 212 205 194 127 203 203 198 224
162 117 111 127 142 190 181 166 126 95 182 104 89 129 147 178 172 171 156 132 127 118 124 117 173 152 112 260 234 224 237 246 215 227 214 220 209 206 212 213 228 208 194 213 196
119 109 116 124 176 176 160 177 95 162 184 173 183 176 141 180 173 160 131 131 123 122 123 179 157 205 156 230 261 230 206 213 147 207 208 166 182 197 177 215 196 175 210 172 223
184 110 107 113 168 189 181 178 158 191 183 187 178 176 179 174 166 134 121 124 125 183 144 133 117 227 234 200 220 228 217 204 202 143 227 196 189 187 163 206 172 183 153 178 159
184 101 178 103 164 178 156 201 166 168 147 172 182 176 179 159 132 132 129 149 171 173 117 201 204 220 153 205 226 239 207 170 232 215 191 197 214 178 208 193 176 179 181 178 153
176 180 177 161 168 173 159 170 135 131 181 178 175 180 177 142 161 133 142 154 146 146 137 159 170 190 207 187 202 207 197 220 199 217 215 214 173 163 180 174 206 105 165 139 207
178 185 164 161 117 152 136 137 89 137 177 184 177 179 157 133 148 154 154 117 137 135 161 162 153 162 192 179 134 216 199 193 203 162 156 183 162 181 187 152 199 188 205 170 193
172 169 133 175 151 142 163 188 181 184 183 186 173 169 174 151 178 183 143 121 143 134 163 157 165 179 167 169 175 176 193 184 182 210 203 206 185 188 171 192 190 187 189 156 198
175 159 129 135 158 124 120 186 181 179 181 154 182 158 147 158 175 155 129 127 145 159 163 160 136 158 151 161 166 161 167 175 171 188 178 185 197 189 194 191 180 173 179 173 162
166 179 169 146 119 126 136 182 164 184 175 169 175 173 176 154 168 122 121 141 156 161 162 169 163 150 147 123 143 162 168 155 165 165 175 107 196 186 183 184 182 184 162 175 181
159 137 188 182 154 144 177 150 172 145 178 168 183 161 161 153 154 129 160 133 159 156 156 151 157 144 165 154 157 154 165 166 159 150 165 173 171 188 184 183 172 170 177 166 175
135 135 137 158 152 129 172 156 181 170 181 170 174 168 156 152 147 146 160 154 156 162 109 159 159 120 137 150 160 158 163 158 158 166 154 155 161 181 180 181 177 160 181 169 153
153 139 169 145 164 160 163 179 177 125 168 174 168 163 167 157 169 138 160 163 156 157 164 158 160 150 161 156 152 156 157 154 159 167 162 149 162 157 171 178 176 173 167 151 166
161 151 166 169 168 161 163 154 138 141 176 178 174 162 166 142 137 134 162 154 155 159 158 164 155 152 151 138 154 148 161 152 157 151 166 154 157 150 169 169 150 174 176 168 158
97 162 140 159 154 169 165 179 182 180 183 175 170 156 153 143 167 167 163 166 162 162 162 150 158 149 150 149 154 144 144 162 151 151 158 154 158 152 191 162 171 167 179 151 171
114 160 130 166 168 159 176 180 184 183 179 177 161 165 146 155 168 157 159 158 166 164 158 171 161 152 149 146 127 151 152 148 149 149 158 153 144 163 175 162 174 171 166 172 165
179 154 160 170 158 143 161 130 173 171 179 166 160 148 147 154 164 153 160 157 148 170 168 158 155 158 149 135 137 155 162 140 143 148 148 155 145 177 161 174 178 175 168 173 182
160 153 157 170 124 170 150 157 166 173 174 159 162 162 149 156 162 160 164 159 161 158 153 159 153 170 135 135 157 158 159 153 139 147 144 155 155 163 182 178 177 171 160 161 181
159 157 175 173 136 149 153 145 153 171 164 157 150 148 168 165 162 157 157 165 165 162 163 163 156 163 139 132 144 157 147 168 133 147 144 151 144 167 164 178 176 170 161 152 161
137 155 155 142 146 155 151 152 145 151 162 157 158 173 165 164 164 161 163 159 155 159 152 139 164 145 148 134 162 157 174 147 130 158 150 141 153 153 186 180 180 170 181 150 179
136 144 153 160 134 137 164 160 154 152 119 117 115 156 180 157 156 160 163 159 167 178 137 139 140 127 138 152 138 162 154 144 142 144 159 153 157 133 171 175 180 172 167 149 174
135 145 157 132 134 151 166 166 155 154 140 152 159 164 171 162 160 166 168 151 175 144 144 133 152 137 159 127 141 173 165 143 141 160 147 166 163 140 169 178 179 174 174 151 174
157 169 159 148 147 152 150 156 104 159 89 108 158 156 157 161 151 161 160 164 161 163 146 153 165 166 146 160 159 160 158 146 158 152 154 149 166 145 169 179 180 170 173 171 199
146 145 154 156 105 153 156 158 161 152 158 160 154 156 146 156 157 151 139 158 163 162 167 160 160 163 180 170 155 152 152 163 158 142 148 151 158 181 166 191 180 177 167 169 161
156 166 153 154 168 158 150 156 157 153 156 159 160 152 155 169 164 165 167 163 164 168 180 179 173 174 181 143 162 140 158 150 152 141 155 150 156 164 181 179 178 173 163 158 167
159 159 165 158 155 151 154 156 151 152 155 160 160 165 161 166 156 158 166 175 176 183 166 185 182 143 147 147 145 161 142 149 148 142 150 153 158 160 169 181 177 170 169 179 164
156 167 167 165 161 162 153 152 157 156 157 163 164 166 150 151 161 158 150 160 166 149 142 147 150 145 141 153 150 155 142 149 141 154 148 149 163 157 189 182 171 162 163 180 169
Wind_Speed
25 25 21 23 20 19 16 12 9 12 24 15 19 21 24 30 31 20 24 27 21 27 29 34 38 34 36 37 23 28 21 13 9 12 25 37 21 16 29 23 52 27 33 39 24
24 24 23 22 20 14 13 13 13 19 14 24 24 24 21 15 18 21 23 25 28 33 33 37 36 33 41 12 18 24 11 19 13 4 17 6 21 21 14 11 20 23 41 19 36
26 25 26 22 16 12 18 14 19 14 13 12 9 13 23 15 19 20 29 30 33 35 38 40 39 24 32 15 31 11 25 18 31 17 11 22 37 26 44 18 31 43 26 48 36
24 27 28 25 17 16 12 11 15 11 9 7 12 11 13 15 20 29 33 35 37 33 39 41 40 23 32 26 12 22 21 28 32 33 23 33 29 30 45 32 50 41 42 42 60
26 24 22 27 18 13 16 10 14 12 12 12 9 11 12 17 30 32 34 33 30 32 41 36 37 33 38 33 33 34 15 28 29 21 32 30 21 41 30 40 50 44 50 53 62
26 23 20 19 16 14 17 12 20 21 9 9 9 10 11 26 18 34 35 32 32 41 47 41 40 41 48 42 43 34 34 31 23 27 24 25 37 38 29 40 38 55 51 49 58
26 23 19 19 24 20 22 20 24 19 8 9 8 9 17 30 26 25 30 38 36 43 40 42 42 43 52 44 30 38 42 44 37 29 32 28 32 30 30 42 43 38 56 52 63
25 22 30 20 16 14 16 8 8 10 10 10 9 11 8 24 10 12 33 41 37 47 33 37 36 39 39 40 51 58 52 54 50 41 40 41 41 43 43 47 50 53 61 43 73
27 23 33 27 23 31 31 6 8 10 9 18 8 16 26 20 8 26 38 42 38 34 33 34 35 39 42 39 42 41 55 59 55 57 57 53 53 52 57 58 55 55 64 61 53
26 25 22 26 37 30 24 8 13 12 11 12 9 9 7 23 14 37 42 38 35 33 34 33 37 42 47 56 49 49 56 41 57 58 62 47 59 60 64 68 69 73 60 76 84
28 34 24 19 24 26 12 21 10 21 14 13 9 16 18 24 24 39 25 44 32 37 39 43 41 46 41 47 47 48 57 63 53 49 68 73 71 70 69 72 75 76 83 79 89
37 35 31 25 27 32 15 20 14 15 14 12 12 13 21 25 28 31 25 34 35 36 38 42 41 47 51 50 51 55 62 62 65 71 63 71 78 76 76 77 80 75 87 83 78
34 32 27 29 22 21 18 12 15 25 14 13 15 17 17 23 17 37 25 26 34 36 39 43 43 48 47 51 54 56 59 60 68 75 75 70 83 81 83 80 83 86 85 80 92
34 32 29 28 24 22 19 21 22 24 16 15 16 18 18 31 36 41 25 32 34 34 39 39 44 48 49 53 54 58 64 63 70 70 77 78 85 76 86 83 84 89 94 93 92
21 34 33 29 23 22 21 16 15 16 16 16 15 21 23 32 22 23 27 28 32 34 37 40 43 48 52 53 55 60 65 67 69 71 78 83 86 85 72 77 88 91 94 88 104
27 37 41 32 26 24 17 15 16 17 17 16 18 20 30 28 24 30 31 33 33 35 38 44 46 45 51 55 59 60 63 68 72 73 78 81 82 92 90 80 88 93 96 102 104
40 38 34 32 28 30 23 35 19 15 17 17 20 28 31 30 29 33 33 35 40 37 40 40 43 47 51 58 60 59 64 65 70 75 77 84 84 91 96 85 93 95 104 111 116
42 38 35 32 29 25 29 25 19 18 18 22 21 25 30 31 30 33 35 38 40 40 40 46 45 50 59 61 59 60 63 65 70 76 80 86 93 93 95 93 93 99 106 110 122
41 39 35 32 39 33 30 32 28 20 20 23 29 31 29 30 32 35 36 38 39 44 47 47 48 48 56 64 64 61 66 67 71 78 83 87 89 97 103 95 97 100 106 104 115
43 43 39 42 39 35 33 32 33 31 24 27 28 30 31 32 34 37 39 41 41 43 43 47 50 49 52 62 65 61 66 68 71 76 81 87 93 96 95 97 99 105 111 103 118
50 46 42 37 44 28 31 30 32 34 32 30 32 33 33 34 36 39 41 41 44 48 51 52 53 62 61 62 68 65 67 71 75 80 83 84 94 83 106 104 103 107 111 102 122
53 48 44 50 47 38 30 30 34 36 32 32 33 32 33 35 37 41 45 40 45 45 46 51 50 59 58 68 68 64 67 71 74 82 81 93 97 93 110 102 103 106 111 106 125
50 48 46 48 47 41 40 36 27 34 26 30 35 36 35 36 39 40 42 43 44 45 48 48 54 59 63 63 65 67 71 73 77 82 90 92 102 95 109 104 101 107 110 119 125
56 56 50 46 28 44 41 39 37 37 37 35 37 38 39 39 40 45 44 44 48 48 53 54 54 53 56 54 63 67 71 76 79 80 92 96 109 107 114 101 103 108 111 117 121
56 55 53 49 42 43 45 41 38 39 38 37 38 41 38 40 42 45 46 48 49 48 54 55 53 52 54 64 62 66 73 76 81 83 97 99 106 111 105 103 102 105 113 109 125
59 56 53 52 50 49 47 44 42 42 39 38 41 40 38 39 45 46 45 46 50 51 49 52 51 63 65 65 70 73 72 79 83 83 95 101 106 108 110 101 103 106 113 122 124
62 58 56 54 52 49 50 47 44 43 40 41 42 38 42 44 44 43 47 47 47 44 58 56 56 62 69 68 70 73 76 81 81 93 95 98 109 104 99 101 101 108 114 120 125
Wind_Direction
227 230 241 239 244 244 222 225 242 260 263 276 303 291 299 298 312 313 314 314 311 305 309 309 315 328 307 315 320 317 54 339 9 337 296 288 305 305 287 283 297 270 270 275 327
221 233 242 242 242 204 218 235 280 295 261 288 311 292 296 311 314 316 311 302 304 307 310 310 330 312 313 10 318 311 14 64 340 45 296 296 302 283 296 278 343 262 280 306 278
229 238 240 244 207 216 230 234 288 265 267 273 274 291 294 321 318 313 301 304 307 307 308 341 326 9 312 31 43 314 307 309 321 304 288 310 312 292 306 328 286 301 293 293 334
187 239 246 250 209 206 220 239 246 237 257 258 279 298 313 319 312 300 303 307 309 348 321 313 312 21 39 357 333 17 331 317 304 320 353 326 296 288 309 345 305 292 301 289 297
198 251 200 256 214 211 232 203 242 260 294 276 283 302 308 308 300 305 309 320 342 342 313 15 17 23 343 22 31 28 319 335 20 342 309 316 335 295 321 317 297 284 301 306 297
206 204 209 213 215 225 236 241 263 273 261 284 293 296 306 298 312 307 314 325 327 327 324 339 355 17 29 21 18 12 15 14 347 16 7 359 294 303 298 300 342 277 288 305 341
201 205 220 223 258 236 250 261 305 285 265 269 277 293 304 298 311 317 320 311 325 322 335 339 338 343 28 15 352 17 19 9 6 341 332 347 330 336 328 318 338 329 341 296 335
207 214 223 228 242 261 239 203 223 240 259 246 276 291 304 308 356 14 318 312 324 325 339 335 352 16 357 7 21 20 20 19 13 9 1 357 346 346 336 344 341 341 343 300 339
207 218 224 224 242 249 257 215 231 250 253 281 253 294 300 309 351 320 313 314 324 331 333 335 331 338 344 352 5 1 12 11 12 11 1 357 357 354 350 348 341 337 344 338 324
215 219 225 237 251 249 254 225 258 247 252 268 264 274 276 308 313 307 310 323 326 332 333 346 341 331 328 331 344 360 5 350 4 3 0 321 354 356 351 349 347 345 341 344 343
218 219 213 217 239 246 230 265 252 270 246 272 238 293 297 304 307 308 319 318 327 326 327 327 332 326 356 341 351 346 0 2 358 343 1 359 355 357 351 349 347 346 344 344 344
219 224 238 236 238 250 238 258 235 250 239 271 260 277 298 307 309 316 319 323 325 329 340 332 336 338 329 338 354 352 0 357 355 357 353 351 350 357 352 348 346 343 341 342 339
217 221 218 236 237 243 252 238 244 285 261 252 260 286 284 308 295 314 312 317 324 326 332 330 341 334 348 346 346 352 353 353 356 355 354 347 351 350 351 348 345 343 343 343 343
219 227 225 232 238 243 251 258 277 275 252 238 248 282 286 303 307 311 305 320 322 323 329 332 333 333 340 337 346 344 355 351 354 351 352 350 351 345 349 345 345 344 342 341 343
256 225 230 234 239 242 250 250 241 243 243 252 263 291 299 303 298 305 311 318 321 323 330 328 334 334 336 340 343 341 343 351 351 352 352 350 350 344 342 345 344 342 340 343 342
245 226 237 230 238 241 252 248 242 242 247 253 284 285 297 303 298 312 314 318 324 324 326 332 334 331 332 336 335 343 345 345 349 348 352 348 341 348 349 343 344 342 342 343 344
211 230 232 232 239 250 249 259 252 260 255 275 285 293 300 304 302 312 313 318 322 325 328 332 331 331 331 337 338 342 347 340 345 345 347 347 343 349 345 346 344 342 343 344 341
220 230 233 234 259 244 252 255 260 264 269 277 286 288 300 303 304 310 312 317 322 325 330 328 330 332 337 337 338 342 343 342 341 346 343 348 347 345 350 347 345 343 344 343 343
223 227 227 232 246 250 253 263 268 272 272 277 285 293 290 297 303 310 316 314 318 322 324 325 327 328 331 338 335 340 340 342 339 345 344 344 340 348 348 347 345 344 341 346 343
231 229 231 242 247 248 254 261 269 274 277 281 286 284 292 297 300 309 310 316 320 322 324 328 326 328 325 334 336 338 341 342 334 345 345 340 343 344 347 346 344 345 342 347 342
236 236 234 233 250 255 247 253 264 270 290 301 307 289 282 299 306 307 307 315 315 316 322 326 327 332 327 332 336 339 340 343 344 342 347 343 345 342 348 346 347 344 342 347 343
238 236 233 251 254 252 247 252 259 268 281 281 284 288 290 296 304 302 304 315 315 318 322 324 325 323 328 334 333 339 339 341 342 345 340 347 348 340 348 346 346 343 344 347 345
227 227 232 244 249 247 252 255 290 264 311 304 283 286 292 297 303 304 306 309 313 314 319 321 326 329 327 333 335 338 338 341 343 344 343 343 348 339 347 345 346 343 345 344 345
236 241 236 236 270 246 249 255 260 264 270 276 280 286 290 296 298 301 309 312 312 319 321 321 323 329 326 333 333 334 338 340 343 339 343 344 347 348 346 344 347 344 345 344 346
230 228 239 239 235 240 251 254 258 262 268 275 280 282 293 294 296 297 301 311 314 321 319 322 325 327 329 331 337 336 339 341 343 342 345 344 347 347 345 344 345 346 341 348 346
229 231 232 239 240 246 249 252 257 262 267 274 277 282 291 292 292 299 307 310 313 316 326 323 327 325 327 331 334 337 340 341 343 339 343 345 346 345 346 344 346 345 344 346 348
231 228 231 235 240 240 248 253 254 260 265 270 273 282 285 287 292 301 303 308 315 319 309 319 323 325 326 332 334 335 339 340 340 343 341 343 343 344 344 345 345 342 343 346 348